Hourly Data Report for April 08, 2018

KUGAARUK CLIMATE
NUNAVUT
Current Station Operator: ECCC - MSC

68°32'15.060" N
89°47'47.020" W
15.80 m
2303094
71407
NBB

Download Data

Hourly Data (April 2018)
Hourly Data Report for April 8, 2018
TIME
LST
Temp Definition
°C
Dew Point Definition
°C
Rel Hum Definition
%
Precip. Amount Definition
mm

Wind Dir Definition
10's deg

Wind Spd Definition
km/h
Visibility Definition
km
Stn Press Definition
kPa
Hmdx Definition


Wind Chill Definition


Weather Definition


00:00 -22.2 -25.3 75 0.0 27 18   100.82   -33 LegendNANA
01:00 -22.8 -26.1 74 0.0 26 18   100.78   -33 LegendNANA
02:00 -24.1 -27.5 74 0.0 24 20   100.79   -36 LegendNANA
03:00 -24.7 -28.0 74 0.0 23 22   100.76   -37 LegendNANA
04:00 -24.8 -28.1 74 0.0 23 28   100.74   -38 LegendNANA
05:00 -25.5 -28.7 74 0.0 25 28   100.77   -39 LegendNANA
06:00 -26.3 -30.1 70 0.0 25 23   100.80   -39 LegendNANA
07:00 -26.2 -30.3 68 0.0 26 23   100.80   -39 LegendNANA
08:00 -26.4 -30.7 67 0.0 27 26   100.80   -40 LegendNANA
09:00 -26.6 -31.2 65 0.0 27 25   100.83   -40 LegendNANA
10:00 -26.3 -31.5 62 0.0 27 24   100.81   -39 LegendNANA
11:00 -25.9 -31.1 62 0.0 26 23   100.82   -39 LegendNANA
12:00 -25.3 -31.1 58 0.0 27 22   100.84   -38 LegendNANA
13:00 -24.8 -30.9 57 0.0 27 26   100.86   -38 LegendNANA
14:00 -24.5 -30.4 58 0.0 27 24   100.88   -37 LegendNANA
15:00 -24.6 -30.5 58 0.0 28 22   100.89   -37 LegendNANA
16:00 -24.7 -29.9 62 0.0 28 18   100.91   -36 LegendNANA
17:00 -25.2 -30.1 63 0.0 27 17   100.92   -36 LegendNANA
18:00 -27.0 -31.1 68 0.0 25 13   100.90   -37 LegendNANA
19:00 -27.7 -31.2 72 0.0 24 19   100.90   -40 LegendNANA
20:00 -28.4 -32.1 71 0.0 28 11   100.89   -38 LegendNANA
21:00 -29.2 -32.8 71 0.0 26 12   100.87   -39 LegendNANA
22:00 -29.1 -32.5 72 0.0 26 15   100.88   -40 LegendNANA
23:00 -30.1 -33.8 70 0.0 25 16   100.87   -42 LegendNANA

Notes on Data Quality.

Legend

  • E = Estimated
  • M = Missing
  • NA = Not Available*
  • [empty] = Indicates an unobserved value
Date modified: